Sheridan, NY

10:28 PM EDT on August 28, 2016 (GMT -0400)
Chautauqua County-Dunkirk

Weather History for KDKK - September, 2013

Change the Weather History Date:

Friday, September 13, 2013

  Actual Average Record
Temperature  
Mean Temperature 58 °F -  
Max Temperature 63 °F 74 °F 91 °F (1951)
Min Temperature 52 °F 55 °F 38 °F (1964)
Degree Days  
Heating Degree Days 8    
Growing Degree Days 8 (Base 50)    
Moisture  
Dew Point 47 °F    
Average Humidity 71    
Maximum Humidity 78    
Minimum Humidity 66    
Precipitation  
Precipitation 0.00 in - - ()
Sea Level Pressure  
Sea Level Pressure 29.92 in    
Wind  
Wind Speed 12 mph (NW)    
Max Wind Speed 20 mph    
Max Gust Speed 26 mph    
Visibility 10 miles    
Events      
Averages and records for this station are not official NWS values.
T = Trace of Precipitation, MM = Missing Value Source: NWS Daily Summary

Daily Weather History Graph

Daily Weather History Graph

Search for Another Location

Airport or City:

Trip Planner

Search our weather history database for the weather conditions in past years. The results will help you decide how hot, cold, wet, or windy it might be!

Date:

Astronomy

Sep. 13, 2013 Rise Set
Actual Time 6:55 AM EDT 7:29 PM EDT
Civil Twilight 6:26 AM EDT 7:58 PM EDT
Nautical Twilight 5:53 AM EDT 8:31 PM EDT
Astronomical Twilight 5:18 AM EDT 9:06 PM EDT
Moon 3:23 PM EDT (9/13) 12:17 AM EDT (9/13)
Length of Visible Light 13h 31m
Length of Day
12h 34m
First Quarter, 61% of the Moon is Illuminated
Sep 13
First Quarter
Sep 19
Full
Sep 26
Last Quarter
Oct 4
New
Oct 11
First Quarter

Hourly Weather History & Observations

Time (EDT) Temp. Dew Point Humidity Pressure Visibility Wind Dir Wind Speed Gust Speed Precip Events Conditions
12:30 AM 62.6 °F 55.4 °F 77% 29.83 in 10.0 mi WNW 11.5 mph - N/A   Overcast
12:53 AM 63.0 °F 55.0 °F 75% 29.83 in 10.0 mi WNW 10.4 mph - N/A   Overcast
1:53 AM 62.1 °F 54.0 °F 75% 29.81 in 10.0 mi NNW 10.4 mph - N/A   Overcast
2:04 AM 62.6 °F 53.6 °F 72% 29.83 in 10.0 mi NW 10.4 mph - N/A   Overcast
2:37 AM 62.6 °F 53.6 °F 72% 29.83 in 10.0 mi NW 17.3 mph 26.5 mph N/A   Overcast
2:53 AM 61.0 °F 54.0 °F 78% 29.81 in 10.0 mi NW 17.3 mph 25.3 mph N/A   Mostly Cloudy
3:53 AM 61.0 °F 52.0 °F 72% 29.82 in 10.0 mi NNW 12.7 mph 20.7 mph N/A   Overcast
4:51 AM 60.8 °F 51.8 °F 72% 29.84 in 10.0 mi NNW 12.7 mph 21.9 mph N/A   Overcast
4:53 AM 60.1 °F 51.1 °F 72% 29.83 in 10.0 mi NNW 16.1 mph 21.9 mph N/A   Overcast
5:07 AM 60.8 °F 51.8 °F 72% 29.84 in 10.0 mi NNW 10.4 mph - N/A   Overcast
5:39 AM 59.0 °F 50.0 °F 72% 29.84 in 10.0 mi NNW 10.4 mph - N/A   Overcast
5:53 AM 59.0 °F 50.0 °F 72% 29.84 in 10.0 mi NNW 13.8 mph 23.0 mph N/A   Overcast
6:53 AM 57.9 °F 48.9 °F 72% 29.86 in 10.0 mi NNW 11.5 mph 20.7 mph N/A   Overcast
7:53 AM 57.0 °F 48.0 °F 72% 29.88 in 10.0 mi North 9.2 mph 18.4 mph N/A   Overcast
8:01 AM 57.2 °F 48.2 °F 72% 29.89 in 10.0 mi NNW 12.7 mph - N/A   Overcast
8:08 AM 57.2 °F 48.2 °F 72% 29.89 in 10.0 mi NNW 11.5 mph 19.6 mph N/A   Overcast
8:53 AM 55.9 °F 48.0 °F 75% 29.90 in 10.0 mi NNW 11.5 mph 20.7 mph N/A   Overcast
9:28 AM 55.4 °F 46.4 °F 72% 29.91 in 10.0 mi North 9.2 mph 17.3 mph N/A   Overcast
9:53 AM 55.9 °F 48.0 °F 75% 29.91 in 10.0 mi NNW 10.4 mph 23.0 mph N/A   Overcast
10:53 AM 55.9 °F 46.0 °F 69% 29.93 in 10.0 mi NNW 15.0 mph 23.0 mph N/A   Overcast
11:13 AM 55.4 °F 44.6 °F 67% 29.94 in 10.0 mi NNW 15.0 mph 23.0 mph N/A   Overcast
11:53 AM 55.0 °F 44.1 °F 67% 29.95 in 10.0 mi NW 17.3 mph - N/A   Overcast
12:53 PM 55.0 °F 46.0 °F 72% 29.96 in 10.0 mi NW 15.0 mph 25.3 mph N/A   Overcast
1:53 PM 53.1 °F 45.0 °F 74% 29.96 in 10.0 mi NW 15.0 mph - 0.00 in   Overcast
2:53 PM 54.0 °F 44.1 °F 69% 29.96 in 10.0 mi NW 11.5 mph - N/A   Overcast
3:53 PM 54.0 °F 43.0 °F 66% 29.97 in 10.0 mi WNW 13.8 mph - N/A   Overcast
4:19 PM 53.6 °F 42.8 °F 67% 29.97 in 10.0 mi NW 13.8 mph - N/A   Overcast
4:37 PM 53.6 °F 44.6 °F 72% 29.97 in 10.0 mi NW 13.8 mph 21.9 mph N/A   Overcast
4:48 PM 53.6 °F 44.6 °F 72% 29.98 in 10.0 mi NW 12.7 mph 21.9 mph N/A   Overcast
4:53 PM 53.1 °F 44.1 °F 71% 29.99 in 10.0 mi NW 12.7 mph - N/A   Overcast
5:53 PM 53.1 °F 43.0 °F 69% 30.00 in 10.0 mi NW 12.7 mph 19.6 mph N/A   Overcast
6:13 PM 53.6 °F 42.8 °F 67% 30.00 in 10.0 mi NW 9.2 mph - N/A   Overcast
6:53 PM 53.1 °F 43.0 °F 69% 30.01 in 10.0 mi NW 15.0 mph - N/A   Overcast
7:53 PM 53.1 °F 42.1 °F 66% 30.02 in 10.0 mi NNW 10.4 mph 18.4 mph N/A   Overcast
8:53 PM 52.0 °F 43.0 °F 71% 30.05 in 10.0 mi North 9.2 mph - N/A   Overcast
9:53 PM 53.1 °F 43.0 °F 69% 30.05 in 10.0 mi NNW 11.5 mph - N/A   Overcast
10:28 PM 53.6 °F 42.8 °F 67% 30.05 in 10.0 mi NNW 13.8 mph 23.0 mph N/A   Overcast
10:53 PM 52.0 °F 42.1 °F 69% 30.06 in 10.0 mi NW 19.6 mph 25.3 mph N/A   Overcast
11:53 PM 52.0 °F 41.0 °F 66% 30.06 in 10.0 mi NW 12.7 mph - N/A   Overcast